Change the Weather History Date:

Tuesday, January 1, 2013

  Actual Average Record
Temperature  
Mean Temperature 40 °F -  
Max Temperature 46 °F - - ()
Min Temperature 35 °F - - ()
Degree Days  
Heating Degree Days 24    
Moisture  
Dew Point 36 °F    
Average Humidity 79    
Maximum Humidity 93    
Minimum Humidity 66    
Precipitation  
Precipitation 0.00 in - - ()
Sea Level Pressure  
Sea Level Pressure 29.69 in    
Wind  
Wind Speed 11 mph ()    
Max Wind Speed 18 mph    
Max Gust Speed -    
Visibility 6.2 miles    
Events      
T = Trace of Precipitation, MM = Missing Value Source: Averaged Metar Reports

Daily Weather History Graph

Daily Weather History Graph

Search for Another Location

Airport or City:

Trip Planner

Search our weather history database for the weather conditions in past years. The results will help you decide how hot, cold, wet, or windy it might be!

Date:

Astronomy

Jan. 01, 2013 Rise Set
Actual Time 8:19 AM GMT 3:55 PM GMT
Civil Twilight 7:37 AM GMT 4:38 PM GMT
Nautical Twilight 6:52 AM GMT 5:23 PM GMT
Astronomical Twilight 6:09 AM GMT 6:06 PM GMT
Moon 8:52 PM GMT (1/1) 9:47 AM GMT (1/1)
Length of Visible Light 9h 00m
Length of Day
7h 35m
Waning Gibbous, 85% of the Moon is Illuminated
Jan 1
Waning Gibbous
Jan 5
Last Quarter
Jan 11
New
Jan 18
First Quarter
Jan 27
Full

Hourly Weather History & Observations

Time (GMT) Temp. Windchill Dew Point Humidity Pressure Visibility Wind Dir Wind Speed Gust Speed Precip Events Conditions
12:20 AM 44.6 °F 39.7 °F 37.4 °F 76% 29.47 in 6.2 mi West 9.2 mph - N/A   Partly Cloudy
1:20 AM 42.8 °F 37.0 °F 35.6 °F 76% 29.47 in - WSW 10.4 mph - N/A   Clear
1:50 AM 41.0 °F 36.4 °F 35.6 °F 81% 29.50 in 6.2 mi West 6.9 mph - N/A   Partly Cloudy
2:20 AM 39.2 °F 33.6 °F 33.8 °F 81% 29.50 in - SW 8.1 mph - N/A   Clear
2:50 AM 41.0 °F 34.7 °F 35.6 °F 81% 29.50 in - WSW 10.4 mph - N/A   Clear
3:20 AM 41.0 °F 34.3 °F 35.6 °F 81% 29.50 in - SW 11.5 mph - N/A   Clear
3:50 AM 41.0 °F 33.1 °F 35.6 °F 81% 29.50 in - West 15.0 mph - N/A   Clear
4:20 AM 41.0 °F 34.7 °F 37.4 °F 87% 29.50 in 6.2 mi WSW 10.4 mph - N/A   Mostly Cloudy
4:50 AM 39.2 °F 32.0 °F 35.6 °F 87% 29.53 in 6.2 mi WSW 11.5 mph - N/A   Partly Cloudy
5:20 AM 41.0 °F 32.8 °F 33.8 °F 76% 29.53 in - WSW 16.1 mph - N/A   Clear
5:50 AM 37.4 °F 31.4 °F 35.6 °F 93% 29.53 in - SW 8.1 mph - N/A   Clear
6:20 AM 35.6 °F 28.6 °F 33.8 °F 93% 29.56 in - SSW 9.2 mph - N/A   Clear
6:50 AM 37.4 °F 30.3 °F 33.8 °F 87% 29.56 in 6.2 mi SSW 10.4 mph - N/A   Scattered Clouds
7:20 AM 39.2 °F 33.0 °F 35.6 °F 87% 29.56 in 6.2 mi SW 9.2 mph - N/A   Mostly Cloudy
7:50 AM 37.4 °F 31.4 °F 33.8 °F 87% 29.56 in 6.2 mi SW 8.1 mph - N/A   Partly Cloudy
8:20 AM 39.2 °F 32.0 °F 35.6 °F 87% 29.59 in 6.2 mi WSW 11.5 mph - N/A   Partly Cloudy
8:50 AM 41.0 °F 35.2 °F 35.6 °F 81% 29.59 in 6.2 mi WSW 9.2 mph - N/A   Partly Cloudy
9:20 AM 41.0 °F 34.3 °F 35.6 °F 81% 29.62 in 6.2 mi WSW 11.5 mph - N/A   Partly Cloudy
9:50 AM 42.8 °F 36.6 °F 35.6 °F 76% 29.62 in 6.2 mi West 11.5 mph - N/A   Partly Cloudy
10:20 AM 42.8 °F 36.2 °F 35.6 °F 76% 29.65 in 6.2 mi WSW 12.7 mph - N/A   Partly Cloudy
10:50 AM 44.6 °F 38.4 °F 35.6 °F 71% 29.65 in 6.2 mi West 12.7 mph - N/A   Partly Cloudy
11:20 AM 44.6 °F 37.4 °F 35.6 °F 71% 29.65 in 6.2 mi West 16.1 mph - N/A   Partly Cloudy
11:50 AM 44.6 °F 36.9 °F 37.4 °F 76% 29.65 in 6.2 mi West 18.4 mph - N/A   Partly Cloudy
12:20 PM 46.4 °F 40.4 °F 37.4 °F 71% 29.68 in 6.2 mi West 13.8 mph - N/A   Mostly Cloudy
12:50 PM 46.4 °F 39.8 °F 35.6 °F 66% 29.68 in 6.2 mi West 16.1 mph - N/A   Scattered Clouds
1:20 PM 46.4 °F 39.5 °F 35.6 °F 66% 29.68 in 6.2 mi West 17.3 mph - N/A   Scattered Clouds
1:50 PM 44.6 °F 38.1 °F 35.6 °F 71% 29.71 in 6.2 mi West 13.8 mph - N/A   Scattered Clouds
2:20 PM 46.4 °F 39.2 °F 37.4 °F 71% 29.71 in 6.2 mi West 18.4 mph - N/A   Scattered Clouds
2:50 PM 44.6 °F 36.9 °F 37.4 °F 76% 29.71 in 6.2 mi West 18.4 mph - N/A   Scattered Clouds
3:20 PM 46.4 °F 40.7 °F 37.4 °F 71% 29.71 in 6.2 mi WSW 12.7 mph - N/A   Scattered Clouds
3:50 PM 44.6 °F 38.1 °F 37.4 °F 76% 29.74 in 6.2 mi West 13.8 mph - N/A   Scattered Clouds
4:20 PM 44.6 °F 38.1 °F 37.4 °F 76% 29.74 in 6.2 mi West 13.8 mph - N/A   Scattered Clouds
4:50 PM 44.6 °F 37.4 °F 37.4 °F 76% 29.77 in 6.2 mi West 16.1 mph - N/A   Partly Cloudy
5:20 PM 44.6 °F 38.1 °F 37.4 °F 76% 29.77 in 6.2 mi West 13.8 mph - N/A   Partly Cloudy
5:50 PM 44.6 °F 38.1 °F 37.4 °F 76% 29.80 in 6.2 mi West 13.8 mph - N/A   Partly Cloudy
6:20 PM 44.6 °F 38.4 °F 39.2 °F 81% 29.83 in 6.2 mi West 12.7 mph - N/A   Partly Cloudy
6:50 PM 44.6 °F 38.8 °F 39.2 °F 81% 29.83 in 6.2 mi West 11.5 mph - N/A   Partly Cloudy
7:20 PM 44.6 °F 39.2 °F 37.4 °F 76% 29.83 in - West 10.4 mph - N/A   Clear
7:50 PM 44.6 °F 39.2 °F 37.4 °F 76% 29.86 in - West 10.4 mph - N/A   Clear
8:20 PM 44.6 °F 38.8 °F 39.2 °F 81% 29.89 in 6.2 mi WNW 11.5 mph - N/A   Scattered Clouds
8:50 PM 44.6 °F 39.2 °F 37.4 °F 76% 29.89 in 6.2 mi WNW 10.4 mph - N/A   Partly Cloudy
9:20 PM 46.4 °F 40.7 °F 39.2 °F 76% 29.92 in - West 12.7 mph - N/A   Clear
9:50 PM 44.6 °F 39.7 °F 37.4 °F 76% 29.92 in - WNW 9.2 mph - N/A   Clear
10:20 PM 42.8 °F 37.0 °F 37.4 °F 81% 29.95 in - West 10.4 mph - N/A   Clear
10:50 PM 42.8 °F 37.0 °F 37.4 °F 81% 29.95 in - WNW 10.4 mph - N/A   Clear
11:20 PM 42.8 °F 37.5 °F 37.4 °F 81% 29.98 in - WNW 9.2 mph - N/A   Clear
11:50 PM 42.8 °F 36.6 °F 37.4 °F 81% 29.98 in - West 11.5 mph - N/A   Clear